Time,TemperatureF,DewpointF,PressureIn,WindDirection,WindDirectionDegrees,WindSpeedMPH,WindSpeedGustMPH,Humidity,HourlyPrecipIn,Conditions,Clouds,dailyrainin,SoftwareType,DateUTC
2013-03-13 00:00:00,28.0,16.8,29.67,NNE,13,0.0,0.0,62,0.00,,---,0.00,VWS V14.01,2013-03-12 23:00:00,
2013-03-13 00:01:00,34.3,24.9,29.76,WNW,290,0.0,0.0,68,0.00,,---,0.00,VWS V14.01,2013-03-12 23:01:00,
2013-03-13 00:05:00,27.9,16.8,29.67,NNE,13,0.0,0.0,62,0.00,,---,0.00,VWS V14.01,2013-03-12 23:05:00,
2013-03-13 00:10:00,27.8,16.7,29.67,NNE,13,0.0,0.0,63,0.00,,---,0.00,VWS V14.01,2013-03-12 23:10:00,
2013-03-13 00:15:00,27.7,16.7,29.67,NNE,13,0.0,0.0,63,0.00,,---,0.00,VWS V14.01,2013-03-12 23:15:00,
2013-03-13 00:20:00,27.6,16.6,29.67,NNE,13,0.0,0.0,63,0.00,,---,0.00,VWS V14.01,2013-03-12 23:20:00,
2013-03-13 00:25:00,27.4,16.5,29.67,NNE,13,0.0,0.0,63,0.00,,---,0.00,VWS V14.01,2013-03-12 23:25:00,
2013-03-13 00:30:00,27.2,16.4,29.67,NNE,13,0.0,0.0,63,0.00,,---,0.00,VWS V14.01,2013-03-12 23:30:00,
2013-03-13 00:35:00,27.1,16.3,29.67,NNE,13,0.0,0.0,63,0.00,,---,0.00,VWS V14.01,2013-03-12 23:35:00,
2013-03-13 00:40:00,27.0,16.3,29.67,NNE,13,0.0,0.0,64,0.00,,---,0.00,VWS V14.01,2013-03-12 23:40:00,
2013-03-13 00:45:00,27.0,16.4,29.67,NNE,13,0.0,0.0,64,0.00,,---,0.00,VWS V14.01,2013-03-12 23:45:00,
2013-03-13 00:50:00,27.0,16.5,29.67,NNE,13,0.0,0.0,64,0.00,,---,0.00,VWS V14.01,2013-03-12 23:50:00,
2013-03-13 00:55:00,26.8,16.4,29.67,NNE,13,0.0,0.0,64,0.00,,---,0.00,VWS V14.01,2013-03-12 23:55:00,
2013-03-13 01:00:00,26.7,16.4,29.67,NNE,13,0.0,0.0,64,0.00,,---,0.00,VWS V14.01,2013-03-13 00:00:00,
2013-03-13 01:05:00,26.5,16.3,29.67,NNE,13,0.0,0.0,65,0.00,,---,0.00,VWS V14.01,2013-03-13 00:05:00,
2013-03-13 01:10:00,26.5,16.4,29.67,NNE,13,0.0,0.0,65,0.00,,---,0.00,VWS V14.01,2013-03-13 00:10:00,
2013-03-13 01:15:00,26.5,16.5,29.67,NNE,13,0.0,0.0,65,0.00,,---,0.00,VWS V14.01,2013-03-13 00:15:00,
2013-03-13 01:20:00,26.3,16.4,29.67,NNE,13,0.0,0.0,66,0.00,,---,0.00,VWS V14.01,2013-03-13 00:20:00,
2013-03-13 01:25:00,26.2,16.6,29.67,NNE,13,0.0,0.0,67,0.00,,---,0.00,VWS V14.01,2013-03-13 00:25:00,
2013-03-13 01:30:00,26.6,17.1,29.67,NNE,13,0.0,0.0,67,0.00,,---,0.00,VWS V14.01,2013-03-13 00:30:00,
2013-03-13 01:35:00,26.3,16.9,29.67,NNE,13,0.0,0.0,67,0.00,,---,0.00,VWS V14.01,2013-03-13 00:35:00,
2013-03-13 01:40:00,26.4,17.0,29.67,NNE,13,0.0,0.0,67,0.00,,---,0.00,VWS V14.01,2013-03-13 00:40:00,
2013-03-13 01:45:00,26.2,16.9,29.67,NNE,13,0.0,0.0,68,0.00,,---,0.00,VWS V14.01,2013-03-13 00:45:00,
2013-03-13 01:50:00,26.1,17.0,29.67,NNE,13,0.0,0.0,68,0.00,,---,0.00,VWS V14.01,2013-03-13 00:50:00,
2013-03-13 01:55:00,26.2,17.2,29.67,NNE,13,0.0,0.0,68,0.00,,---,0.00,VWS V14.01,2013-03-13 00:55:00,
2013-03-13 02:00:00,26.1,17.2,29.67,NNE,13,0.0,0.0,68,0.00,,---,0.00,VWS V14.01,2013-03-13 01:00:00,
2013-03-13 02:05:00,26.3,17.5,29.67,NNE,13,0.0,0.0,69,0.00,,---,0.00,VWS V14.01,2013-03-13 01:05:00,
2013-03-13 02:10:00,26.2,17.5,29.67,NNE,13,0.0,0.0,69,0.00,,---,0.00,VWS V14.01,2013-03-13 01:10:00,
2013-03-13 02:15:00,26.0,17.3,29.67,NNE,13,0.0,0.0,69,0.00,,---,0.00,VWS V14.01,2013-03-13 01:15:00,
2013-03-13 02:20:00,26.2,17.6,29.67,NNE,13,0.0,0.0,69,0.00,,---,0.00,VWS V14.01,2013-03-13 01:20:00,
2013-03-13 02:25:00,25.9,17.3,29.67,NNE,13,0.0,0.0,69,0.00,,---,0.00,VWS V14.01,2013-03-13 01:25:00,
2013-03-13 02:30:00,25.9,17.4,29.67,NNE,13,0.0,0.0,70,0.00,,---,0.00,VWS V14.01,2013-03-13 01:30:00,
2013-03-13 02:35:00,25.7,17.3,29.66,NNE,13,0.0,0.0,70,0.00,,---,0.00,VWS V14.01,2013-03-13 01:35:00,
2013-03-13 02:40:00,25.8,17.6,29.67,NNE,13,0.0,0.0,71,0.00,,---,0.00,VWS V14.01,2013-03-13 01:40:00,
2013-03-13 02:45:00,25.8,17.7,29.66,NNE,13,0.0,0.0,71,0.00,,---,0.00,VWS V14.01,2013-03-13 01:45:00,
2013-03-13 02:50:00,25.7,17.7,29.66,NNE,13,0.0,0.0,71,0.00,,---,0.00,VWS V14.01,2013-03-13 01:50:00,
2013-03-13 02:55:00,25.8,18.0,29.66,NNE,13,0.0,0.0,72,0.00,,---,0.00,VWS V14.01,2013-03-13 01:55:00,
2013-03-13 03:00:00,25.8,18.1,29.66,NNE,13,0.0,0.0,72,0.00,,---,0.00,VWS V14.01,2013-03-13 02:00:00,
2013-03-13 03:05:00,25.9,18.2,29.66,NNE,13,0.0,0.0,72,0.00,,---,0.00,VWS V14.01,2013-03-13 02:05:00,
2013-03-13 03:10:00,25.7,18.0,29.66,NNE,13,0.0,0.0,72,0.00,,---,0.00,VWS V14.01,2013-03-13 02:10:00,
2013-03-13 03:15:00,25.5,18.0,29.66,NNE,13,0.0,0.0,73,0.00,,---,0.00,VWS V14.01,2013-03-13 02:15:00,
2013-03-13 03:20:00,25.6,18.1,29.66,NNE,13,0.0,0.0,73,0.00,,---,0.00,VWS V14.01,2013-03-13 02:20:00,
2013-03-13 03:25:00,25.6,18.1,29.66,NNE,13,0.0,0.0,73,0.00,,---,0.00,VWS V14.01,2013-03-13 02:25:00,
2013-03-13 03:30:00,25.5,18.2,29.66,NNE,13,0.0,0.0,73,0.00,,---,0.00,VWS V14.01,2013-03-13 02:30:00,
2013-03-13 03:35:00,25.4,18.2,29.66,NNE,13,0.0,0.0,74,0.00,,---,0.00,VWS V14.01,2013-03-13 02:35:00,
2013-03-13 03:40:00,25.4,18.2,29.66,NNE,13,0.0,0.0,74,0.00,,---,0.00,VWS V14.01,2013-03-13 02:40:00,
2013-03-13 03:45:00,25.4,18.3,29.65,NNE,13,0.0,0.0,74,0.00,,---,0.00,VWS V14.01,2013-03-13 02:45:00,
2013-03-13 03:50:00,25.6,18.5,29.65,NNE,13,0.0,0.0,74,0.00,,---,0.00,VWS V14.01,2013-03-13 02:50:00,
2013-03-13 03:55:00,25.4,18.4,29.65,NNE,13,0.0,0.0,74,0.00,,---,0.00,VWS V14.01,2013-03-13 02:55:00,
2013-03-13 04:00:00,25.3,18.3,29.65,NNE,13,0.0,0.0,74,0.00,,---,0.00,VWS V14.01,2013-03-13 03:00:00,
2013-03-13 04:05:00,25.5,18.6,29.65,NNE,13,0.0,0.0,75,0.00,,---,0.00,VWS V14.01,2013-03-13 03:05:00,
2013-03-13 04:10:00,25.6,18.8,29.65,SE,132,0.6,2.2,75,0.00,,---,0.00,VWS V14.01,2013-03-13 03:10:00,
2013-03-13 04:15:00,25.6,18.8,29.65,SW,221,0.7,2.2,75,0.00,,---,0.00,VWS V14.01,2013-03-13 03:15:00,
2013-03-13 04:20:00,25.5,18.7,29.65,SSE,159,0.0,1.7,75,0.00,,---,0.00,VWS V14.01,2013-03-13 03:20:00,
2013-03-13 04:25:00,25.8,19.0,29.65,South,177,1.6,2.1,75,0.00,,---,0.00,VWS V14.01,2013-03-13 03:25:00,
2013-03-13 04:30:00,25.8,19.0,29.65,South,188,0.0,0.0,75,0.00,,---,0.00,VWS V14.01,2013-03-13 03:30:00,
2013-03-13 04:35:00,25.6,18.8,29.64,WNW,285,0.0,0.0,75,0.00,,---,0.00,VWS V14.01,2013-03-13 03:35:00,
2013-03-13 04:40:00,25.8,19.0,29.64,WNW,285,0.0,0.0,75,0.00,,---,0.00,VWS V14.01,2013-03-13 03:40:00,
2013-03-13 04:45:00,25.8,18.9,29.64,WNW,285,0.0,0.0,75,0.00,,---,0.00,VWS V14.01,2013-03-13 03:45:00,
2013-03-13 04:50:00,25.9,19.0,29.64,SW,219,2.2,2.2,75,0.00,,---,0.00,VWS V14.01,2013-03-13 03:50:00,
2013-03-13 04:55:00,25.9,19.0,29.64,SSE,162,0.0,0.9,75,0.00,,---,0.00,VWS V14.01,2013-03-13 03:55:00,
2013-03-13 05:00:00,26.0,19.0,29.64,WNW,301,1.9,1.9,74,0.00,,---,0.00,VWS V14.01,2013-03-13 04:00:00,
2013-03-13 05:05:00,25.8,18.8,29.65,WSW,239,0.0,2.4,74,0.00,,---,0.00,VWS V14.01,2013-03-13 04:05:00,
2013-03-13 05:10:00,25.7,18.7,29.65,WSW,239,0.0,0.0,74,0.00,,---,0.00,VWS V14.01,2013-03-13 04:10:00,
2013-03-13 05:15:00,25.7,18.6,29.65,WSW,239,0.0,0.0,74,0.00,,---,0.00,VWS V14.01,2013-03-13 04:15:00,
2013-03-13 05:20:00,25.7,18.7,29.65,West,269,2.7,2.7,74,0.00,,---,0.00,VWS V14.01,2013-03-13 04:20:00,
2013-03-13 05:25:00,25.9,18.9,29.65,West,281,0.0,0.0,74,0.00,,---,0.00,VWS V14.01,2013-03-13 04:25:00,
2013-03-13 05:30:00,26.0,18.9,29.65,NW,315,0.7,2.6,74,0.00,,---,0.00,VWS V14.01,2013-03-13 04:30:00,
2013-03-13 05:35:00,26.1,19.0,29.65,South,187,0.7,2.2,74,0.00,,---,0.00,VWS V14.01,2013-03-13 04:35:00,
2013-03-13 05:40:00,26.3,19.1,29.64,South,188,0.0,0.0,74,0.00,,---,0.00,VWS V14.01,2013-03-13 04:40:00,
2013-03-13 05:45:00,26.4,19.2,29.64,West,273,3.2,3.5,74,0.00,,---,0.00,VWS V14.01,2013-03-13 04:45:00,
2013-03-13 05:50:00,26.5,19.2,29.64,SW,218,0.0,0.0,73,0.00,,---,0.00,VWS V14.01,2013-03-13 04:50:00,
2013-03-13 05:55:00,26.5,19.1,29.64,West,259,1.5,3.5,73,0.00,,---,0.00,VWS V14.01,2013-03-13 04:55:00,
2013-03-13 06:00:00,26.8,19.3,29.64,South,184,3.3,4.0,73,0.00,,---,0.00,VWS V14.01,2013-03-13 05:00:00,
2013-03-13 06:05:00,26.9,19.2,29.64,WSW,255,2.5,3.7,72,0.00,,---,0.00,VWS V14.01,2013-03-13 05:05:00,
2013-03-13 06:10:00,27.1,19.2,29.64,WSW,243,3.0,3.8,72,0.00,,---,0.00,VWS V14.01,2013-03-13 05:10:00,
2013-03-13 06:15:00,27.2,19.1,29.64,WNW,298,3.7,5.3,71,0.00,,---,0.00,VWS V14.01,2013-03-13 05:15:00,
2013-03-13 06:20:00,27.3,18.9,29.64,West,277,4.8,6.5,70,0.00,,---,0.00,VWS V14.01,2013-03-13 05:20:00,
2013-03-13 06:25:00,27.4,18.8,29.64,SW,217,1.6,3.9,70,0.00,,---,0.00,VWS V14.01,2013-03-13 05:25:00,
2013-03-13 06:30:00,27.7,18.9,29.64,WSW,248,2.3,6.0,69,0.00,,---,0.00,VWS V14.01,2013-03-13 05:30:00,
2013-03-13 06:35:00,27.9,19.0,29.63,WSW,256,2.0,4.3,69,0.00,,---,0.00,VWS V14.01,2013-03-13 05:35:00,
2013-03-13 06:40:00,28.0,19.1,29.63,West,277,1.0,2.3,69,0.00,,---,0.00,VWS V14.01,2013-03-13 05:40:00,
2013-03-13 06:45:00,28.2,19.2,29.63,WNW,288,2.0,4.5,69,0.00,,---,0.00,VWS V14.01,2013-03-13 05:45:00,
2013-03-13 06:50:00,28.0,18.9,29.63,West,277,3.7,5.3,68,0.00,,---,0.00,VWS V14.01,2013-03-13 05:50:00,
2013-03-13 06:55:00,28.3,19.1,29.63,West,281,2.9,5.6,68,0.00,,---,0.00,VWS V14.01,2013-03-13 05:55:00,
2013-03-13 07:00:00,28.3,19.0,29.63,West,277,2.4,6.0,68,0.00,,---,0.00,VWS V14.01,2013-03-13 06:00:00,
2013-03-13 07:05:00,28.2,18.9,29.63,West,266,1.4,2.4,68,0.00,,---,0.00,VWS V14.01,2013-03-13 06:05:00,
2013-03-13 07:10:00,28.1,18.9,29.64,NW,304,2.0,3.5,68,0.00,,---,0.00,VWS V14.01,2013-03-13 06:10:00,
2013-03-13 07:15:00,28.2,19.1,29.64,West,278,5.3,5.3,68,0.00,,---,0.00,VWS V14.01,2013-03-13 06:15:00,
2013-03-13 07:20:00,28.2,19.5,29.64,WSW,245,4.3,5.7,70,0.00,,---,0.00,VWS V14.01,2013-03-13 06:20:00,
2013-03-13 07:25:00,28.1,20.0,29.64,West,281,0.6,1.6,71,0.00,,---,0.00,VWS V14.01,2013-03-13 06:25:00,
2013-03-13 07:30:00,28.2,20.4,29.64,West,262,4.0,5.0,72,0.00,,---,0.00,VWS V14.01,2013-03-13 06:30:00,
2013-03-13 07:35:00,28.0,20.6,29.64,WNW,298,2.0,6.0,74,0.00,,---,0.00,VWS V14.01,2013-03-13 06:35:00,
2013-03-13 07:40:00,28.1,21.1,29.64,West,280,3.4,5.2,75,0.00,,---,0.00,VWS V14.01,2013-03-13 06:40:00,
2013-03-13 07:45:00,28.0,21.3,29.63,West,263,5.0,5.8,76,0.00,,---,0.00,VWS V14.01,2013-03-13 06:45:00,
2013-03-13 07:50:00,27.9,21.5,29.64,NW,312,3.6,5.2,76,0.00,,---,0.00,VWS V14.01,2013-03-13 06:50:00,
2013-03-13 07:55:00,27.9,21.7,29.63,WSW,257,5.8,6.2,77,0.00,,---,0.00,VWS V14.01,2013-03-13 06:55:00,
2013-03-13 08:00:00,28.0,22.0,29.64,NW,307,0.0,0.0,78,0.00,,---,0.00,VWS V14.01,2013-03-13 07:00:00,
2013-03-13 08:05:00,28.2,22.3,29.64,WNW,288,6.3,7.1,78,0.00,,---,0.00,VWS V14.01,2013-03-13 07:05:00,
2013-03-13 08:10:00,28.4,22.6,29.64,SW,232,0.6,2.4,78,0.00,,---,0.00,VWS V14.01,2013-03-13 07:10:00,
2013-03-13 08:15:00,28.4,22.6,29.63,WSW,248,0.0,0.0,79,0.00,,---,0.00,VWS V14.01,2013-03-13 07:15:00,
2013-03-13 08:20:00,28.7,23.0,29.63,WSW,248,0.0,0.0,79,0.00,,---,0.00,VWS V14.01,2013-03-13 07:20:00,
2013-03-13 08:24:00,28.7,23.0,29.64,WSW,242,2.7,3.2,79,0.00,,---,0.00,VWS V14.01,2013-03-13 07:24:00,
2013-03-13 08:29:00,28.8,23.1,29.64,SE,141,0.0,0.0,79,0.00,,---,0.00,VWS V14.01,2013-03-13 07:29:00,
2013-03-13 08:34:00,28.9,23.2,29.64,SE,141,0.0,0.0,79,0.00,,---,0.00,VWS V14.01,2013-03-13 07:34:00,
2013-03-13 08:39:00,29.1,23.4,29.64,WNW,285,3.2,3.3,79,0.00,,---,0.00,VWS V14.01,2013-03-13 07:39:00,
2013-03-13 08:44:00,29.2,23.5,29.64,SW,236,4.5,4.7,79,0.00,,---,0.00,VWS V14.01,2013-03-13 07:44:00,
2013-03-13 08:49:00,29.3,23.5,29.64,WSW,245,0.8,5.0,79,0.00,,---,0.00,VWS V14.01,2013-03-13 07:49:00,
2013-03-13 08:54:00,29.6,23.8,29.64,WNW,291,1.4,1.9,79,0.00,,---,0.00,VWS V14.01,2013-03-13 07:54:00,
2013-03-13 09:01:00,30.0,24.1,29.64,West,262,5.8,6.8,78,0.00,,---,0.00,VWS V14.01,2013-03-13 08:01:00,
2013-03-13 09:07:00,30.1,24.0,29.64,SW,233,3.9,5.2,78,0.00,,---,0.00,VWS V14.01,2013-03-13 08:07:00,
2013-03-13 09:12:00,30.6,24.4,29.65,WNW,292,3.9,6.1,78,0.00,,---,0.00,VWS V14.01,2013-03-13 08:12:00,
2013-03-13 09:17:00,30.5,24.2,29.65,West,259,3.2,3.9,77,0.00,,---,0.00,VWS V14.01,2013-03-13 08:17:00,
2013-03-13 09:22:00,31.1,24.4,29.65,WSW,255,9.4,9.8,76,0.00,,---,0.00,VWS V14.01,2013-03-13 08:22:00,
2013-03-13 09:27:00,31.3,24.4,29.65,NW,307,5.0,5.0,75,0.00,,---,0.00,VWS V14.01,2013-03-13 08:27:00,
2013-03-13 09:32:00,31.3,24.4,29.65,WNW,294,6.4,7.0,75,0.00,,---,0.00,VWS V14.01,2013-03-13 08:32:00,
2013-03-13 09:37:00,31.4,24.3,29.65,NW,304,3.9,4.0,75,0.00,,---,0.00,VWS V14.01,2013-03-13 08:37:00,
2013-03-13 09:42:00,31.6,24.4,29.65,WNW,284,4.9,4.9,74,0.00,,---,0.00,VWS V14.01,2013-03-13 08:42:00,
2013-03-13 09:47:00,31.5,24.2,29.65,WNW,287,8.1,9.6,74,0.00,,---,0.00,VWS V14.01,2013-03-13 08:47:00,
2013-03-13 09:52:00,31.7,24.3,29.65,NW,304,5.0,7.3,74,0.00,,---,0.00,VWS V14.01,2013-03-13 08:52:00,
2013-03-13 09:57:00,31.8,24.5,29.65,West,271,4.2,5.6,74,0.00,,---,0.00,VWS V14.01,2013-03-13 08:57:00,
2013-03-13 10:02:00,31.9,24.6,29.65,WNW,285,4.9,5.8,74,0.00,,---,0.00,VWS V14.01,2013-03-13 09:02:00,
2013-03-13 10:07:00,32.1,24.9,29.65,WSW,238,5.2,7.2,74,0.00,,---,0.00,VWS V14.01,2013-03-13 09:07:00,
2013-03-13 10:12:00,32.1,24.9,29.65,WNW,290,5.0,6.1,74,0.00,,---,0.00,VWS V14.01,2013-03-13 09:12:00,
2013-03-13 10:17:00,32.3,25.1,29.64,WSW,257,6.2,6.4,74,0.00,,---,0.00,VWS V14.01,2013-03-13 09:17:00,
2013-03-13 10:22:00,32.5,25.3,29.64,WNW,287,4.4,5.5,74,0.00,,---,0.00,VWS V14.01,2013-03-13 09:22:00,
2013-03-13 10:27:00,32.7,25.6,29.64,West,263,4.7,5.2,75,0.00,,---,0.00,VWS V14.01,2013-03-13 09:27:00,
2013-03-13 10:32:00,33.1,25.9,29.64,WNW,283,5.7,6.0,74,0.00,,---,0.00,VWS V14.01,2013-03-13 09:32:00,
2013-03-13 10:37:00,33.7,26.4,29.65,WNW,291,5.5,5.7,74,0.00,,---,0.00,VWS V14.01,2013-03-13 09:37:00,
2013-03-13 10:42:00,34.0,26.4,29.65,WNW,283,7.6,10.0,73,0.00,,---,0.00,VWS V14.01,2013-03-13 09:42:00,
2013-03-13 10:47:00,34.2,26.5,29.65,NW,316,8.2,8.5,73,0.00,,---,0.00,VWS V14.01,2013-03-13 09:47:00,
2013-03-13 10:52:00,34.3,26.6,29.65,WNW,285,6.2,7.9,73,0.00,,---,0.00,VWS V14.01,2013-03-13 09:52:00,
2013-03-13 10:57:00,34.3,26.5,29.65,NW,307,5.3,5.9,73,0.00,,---,0.00,VWS V14.01,2013-03-13 09:57:00,
2013-03-13 11:02:00,35.3,27.5,29.65,NW,307,4.7,4.7,73,0.00,,---,0.00,VWS V14.01,2013-03-13 10:02:00,
2013-03-13 11:07:00,35.2,27.1,29.66,West,273,7.0,8.8,72,0.00,,---,0.00,VWS V14.01,2013-03-13 10:07:00,
2013-03-13 11:12:00,35.2,27.1,29.66,WNW,290,6.0,8.3,72,0.00,,---,0.00,VWS V14.01,2013-03-13 10:12:00,
2013-03-13 11:17:00,35.5,27.7,29.66,West,276,5.0,5.7,73,0.00,,---,0.00,VWS V14.01,2013-03-13 10:17:00,
2013-03-13 11:22:00,35.8,27.7,29.66,WSW,256,7.0,7.9,72,0.00,,---,0.00,VWS V14.01,2013-03-13 10:22:00,
2013-03-13 11:27:00,36.1,28.0,29.66,West,270,3.0,3.8,72,0.00,,---,0.00,VWS V14.01,2013-03-13 10:27:00,
2013-03-13 11:32:00,36.5,28.2,29.66,SW,231,4.0,4.0,72,0.00,,---,0.00,VWS V14.01,2013-03-13 10:32:00,
2013-03-13 11:37:00,36.3,28.0,29.66,WSW,245,3.0,3.4,72,0.00,,---,0.00,VWS V14.01,2013-03-13 10:37:00,
2013-03-13 11:42:00,36.9,28.6,29.66,West,277,4.0,7.5,72,0.00,,---,0.00,VWS V14.01,2013-03-13 10:42:00,
2013-03-13 11:47:00,37.3,28.7,29.66,West,276,4.0,4.0,71,0.00,,---,0.00,VWS V14.01,2013-03-13 10:47:00,
2013-03-13 11:52:00,37.9,29.1,29.66,NNE,13,0.6,1.5,70,0.00,,---,0.00,VWS V14.01,2013-03-13 10:52:00,
2013-03-13 11:57:00,38.4,29.0,29.66,WNW,287,3.7,4.9,69,0.00,,---,0.00,VWS V14.01,2013-03-13 10:57:00,
2013-03-13 12:02:00,38.5,29.0,29.66,North,350,4.7,5.0,68,0.00,,---,0.00,VWS V14.01,2013-03-13 11:02:00,
2013-03-13 12:07:00,38.5,28.9,29.66,West,276,0.0,0.0,68,0.00,,---,0.00,VWS V14.01,2013-03-13 11:07:00,
2013-03-13 12:12:00,38.8,29.2,29.66,North,349,3.7,3.7,68,0.00,,---,0.00,VWS V14.01,2013-03-13 11:12:00,
2013-03-13 12:17:00,38.7,28.6,29.66,WSW,246,0.4,0.4,67,0.00,,---,0.00,VWS V14.01,2013-03-13 11:17:00,
2013-03-13 12:22:00,38.9,28.8,29.66,NNW,335,2.5,5.3,67,0.00,,---,0.00,VWS V14.01,2013-03-13 11:22:00,
2013-03-13 12:27:00,38.9,28.8,29.66,NNE,17,0.0,0.0,67,0.00,,---,0.00,VWS V14.01,2013-03-13 11:27:00,
2013-03-13 12:32:00,39.0,28.9,29.66,North,10,1.6,7.2,67,0.00,,---,0.00,VWS V14.01,2013-03-13 11:32:00,
2013-03-13 12:37:00,39.1,28.9,29.66,NE,51,3.8,5.5,66,0.00,,---,0.00,VWS V14.01,2013-03-13 11:37:00,
2013-03-13 12:42:00,39.0,28.5,29.66,ENE,58,0.0,0.0,66,0.00,,---,0.00,VWS V14.01,2013-03-13 11:42:00,
2013-03-13 12:47:00,39.0,28.6,29.66,NE,48,1.4,2.9,66,0.00,,---,0.00,VWS V14.01,2013-03-13 11:47:00,
2013-03-13 12:52:00,39.8,29.7,29.66,South,177,3.2,3.6,67,0.00,,---,0.00,VWS V14.01,2013-03-13 11:52:00,
2013-03-13 12:57:00,40.2,28.9,29.66,WSW,240,2.1,5.0,64,0.00,,---,0.00,VWS V14.01,2013-03-13 11:57:00,
2013-03-13 13:02:00,40.2,28.4,29.66,NNE,28,0.8,1.9,62,0.00,,---,0.00,VWS V14.01,2013-03-13 12:02:00,
2013-03-13 13:07:00,40.1,28.5,29.66,NNE,28,0.0,0.0,63,0.00,,---,0.00,VWS V14.01,2013-03-13 12:07:00,
2013-03-13 13:12:00,39.9,28.6,29.66,North,1,2.1,2.6,64,0.00,,---,0.00,VWS V14.01,2013-03-13 12:12:00,
2013-03-13 13:17:00,39.8,28.6,29.66,North,3,3.6,3.9,64,0.00,,---,0.00,VWS V14.01,2013-03-13 12:17:00,
2013-03-13 13:22:00,39.7,28.6,29.66,NNE,18,3.0,3.0,64,0.00,,---,0.00,VWS V14.01,2013-03-13 12:22:00,
2013-03-13 13:27:00,39.8,28.8,29.66,NE,45,0.9,0.9,64,0.00,,---,0.00,VWS V14.01,2013-03-13 12:27:00,
2013-03-13 13:32:00,40.1,29.1,29.66,NE,48,1.7,3.8,65,0.00,,---,0.00,VWS V14.01,2013-03-13 12:32:00,
2013-03-13 13:37:00,40.1,28.8,29.66,NNE,21,4.5,4.8,64,0.00,,---,0.00,VWS V14.01,2013-03-13 12:37:00,
2013-03-13 13:42:00,40.3,28.9,29.66,NE,49,4.0,4.6,63,0.00,,---,0.00,VWS V14.01,2013-03-13 12:42:00,
2013-03-13 13:47:00,40.7,28.2,29.66,NNE,24,3.7,6.9,61,0.00,,---,0.00,VWS V14.01,2013-03-13 12:47:00,
2013-03-13 13:52:00,40.6,27.9,29.66,North,10,2.6,5.9,60,0.00,,---,0.00,VWS V14.01,2013-03-13 12:52:00,
2013-03-13 13:57:00,40.3,27.6,29.66,North,4,3.5,5.0,60,0.00,,---,0.00,VWS V14.01,2013-03-13 12:57:00,
2013-03-13 14:02:00,40.1,27.7,29.66,North,356,0.2,5.9,61,0.00,,---,0.00,VWS V14.01,2013-03-13 13:02:00,
2013-03-13 14:07:00,40.7,28.2,29.66,North,11,0.9,3.9,61,0.00,,---,0.00,VWS V14.01,2013-03-13 13:07:00,
2013-03-13 14:12:00,40.9,27.8,29.66,NE,46,3.1,6.1,59,0.00,,---,0.00,VWS V14.01,2013-03-13 13:12:00,
2013-03-13 14:17:00,40.5,27.0,29.66,North,359,2.4,7.3,58,0.00,,---,0.00,VWS V14.01,2013-03-13 13:17:00,
2013-03-13 14:22:00,40.4,26.7,29.66,NNW,336,3.2,5.5,58,0.00,,---,0.00,VWS V14.01,2013-03-13 13:22:00,
2013-03-13 14:27:00,40.5,26.8,29.66,NNE,28,3.7,6.6,58,0.00,,---,0.00,VWS V14.01,2013-03-13 13:27:00,
2013-03-13 14:32:00,40.4,26.4,29.66,North,4,5.5,7.2,57,0.00,,---,0.00,VWS V14.01,2013-03-13 13:32:00,
2013-03-13 14:37:00,40.1,26.8,29.67,NNW,330,6.1,10.1,59,0.00,,---,0.00,VWS V14.01,2013-03-13 13:37:00,
2013-03-13 14:42:00,39.1,26.2,29.67,North,359,4.8,10.1,60,0.00,,---,0.00,VWS V14.01,2013-03-13 13:42:00,
2013-03-13 14:47:00,38.5,25.1,29.67,NNE,18,3.0,4.3,58,0.00,,---,0.00,VWS V14.01,2013-03-13 13:47:00,
2013-03-13 14:52:00,38.3,25.0,29.67,North,6,0.0,0.0,58,0.00,,---,0.00,VWS V14.01,2013-03-13 13:52:00,
2013-03-13 14:57:00,38.5,25.4,29.67,NNE,21,1.2,2.4,59,0.00,,---,0.00,VWS V14.01,2013-03-13 13:57:00,
2013-03-13 15:02:00,39.1,25.8,29.67,NE,38,0.0,1.4,59,0.00,,---,0.00,VWS V14.01,2013-03-13 14:02:00,
2013-03-13 15:07:00,39.8,26.0,29.66,NNW,329,3.7,3.7,57,0.00,,---,0.00,VWS V14.01,2013-03-13 14:07:00,
2013-03-13 15:12:00,40.4,26.0,29.66,NW,323,5.9,7.8,56,0.00,,---,0.00,VWS V14.01,2013-03-13 14:12:00,
2013-03-13 15:17:00,40.7,26.2,29.66,NW,305,4.8,7.8,56,0.00,,---,0.00,VWS V14.01,2013-03-13 14:17:00,
2013-03-13 15:22:00,41.0,25.8,29.66,NNW,333,8.0,8.0,54,0.00,,---,0.00,VWS V14.01,2013-03-13 14:22:00,
2013-03-13 15:27:00,41.4,25.7,29.66,NNW,336,7.7,9.8,53,0.00,,---,0.00,VWS V14.01,2013-03-13 14:27:00,
2013-03-13 15:32:00,41.8,26.4,29.66,NNE,21,5.8,8.5,54,0.00,,---,0.00,VWS V14.01,2013-03-13 14:32:00,
2013-03-13 15:37:00,41.7,25.9,29.66,NNE,13,4.6,7.0,53,0.00,,---,0.00,VWS V14.01,2013-03-13 14:37:00,
2013-03-13 15:42:00,41.2,24.8,29.66,NNW,335,1.7,8.1,52,0.00,,---,0.00,VWS V14.01,2013-03-13 14:42:00,
2013-03-13 15:47:00,41.1,24.5,29.66,North,6,5.8,9.1,51,0.00,,---,0.00,VWS V14.01,2013-03-13 14:47:00,
2013-03-13 15:52:00,41.0,24.8,29.67,North,359,7.9,10.0,52,0.00,,---,0.00,VWS V14.01,2013-03-13 14:52:00,
2013-03-13 15:57:00,40.9,25.0,29.67,NW,307,4.5,5.3,53,0.00,,---,0.00,VWS V14.01,2013-03-13 14:57:00,
2013-03-13 16:02:00,40.8,25.3,29.67,NNE,21,1.2,7.6,54,0.00,,---,0.00,VWS V14.01,2013-03-13 15:02:00,
2013-03-13 16:07:00,40.7,26.6,29.67,NE,41,0.0,3.8,57,0.00,,---,0.00,VWS V14.01,2013-03-13 15:07:00,
2013-03-13 16:12:00,40.1,27.3,29.67,NNE,17,1.2,3.9,60,0.00,,---,0.00,VWS V14.01,2013-03-13 15:12:00,
2013-03-13 16:17:00,39.7,27.6,29.67,NE,45,5.9,7.5,62,0.00,,---,0.00,VWS V14.01,2013-03-13 15:17:00,
2013-03-13 16:22:00,39.2,27.7,29.67,NE,52,0.0,0.0,63,0.00,,---,0.00,VWS V14.01,2013-03-13 15:22:00,
2013-03-13 16:27:00,39.3,28.0,29.67,East,80,2.6,4.2,64,0.00,,---,0.00,VWS V14.01,2013-03-13 15:27:00,
2013-03-13 16:32:00,39.0,28.0,29.67,NNE,24,3.4,3.5,64,0.00,,---,0.00,VWS V14.01,2013-03-13 15:32:00,
2013-03-13 16:37:00,38.8,28.1,29.67,North,10,3.4,3.5,65,0.00,,---,0.00,VWS V14.01,2013-03-13 15:37:00,
2013-03-13 16:42:00,38.6,28.1,29.68,ENE,73,2.1,2.1,66,0.00,,---,0.00,VWS V14.01,2013-03-13 15:42:00,
2013-03-13 16:47:00,38.9,28.3,29.68,NNE,21,1.9,3.2,65,0.00,,---,0.00,VWS V14.01,2013-03-13 15:47:00,
2013-03-13 16:52:00,39.1,27.8,29.68,NNW,330,2.7,2.7,64,0.00,,---,0.00,VWS V14.01,2013-03-13 15:52:00,
2013-03-13 16:57:00,39.5,27.0,29.68,NNE,24,5.0,5.3,60,0.00,,---,0.00,VWS V14.01,2013-03-13 15:57:00,
2013-03-13 17:02:00,39.7,25.4,29.68,NNW,343,3.9,6.2,56,0.00,,---,0.00,VWS V14.01,2013-03-13 16:02:00,
2013-03-13 17:07:00,40.1,24.3,29.68,NNW,330,7.3,8.6,53,0.00,,---,0.00,VWS V14.01,2013-03-13 16:07:00,
2013-03-13 17:12:00,40.5,24.9,29.68,NNW,345,6.3,7.3,53,0.00,,---,0.00,VWS V14.01,2013-03-13 16:12:00,
2013-03-13 17:17:00,40.2,24.4,29.68,North,359,5.4,8.1,53,0.00,,---,0.00,VWS V14.01,2013-03-13 16:17:00,
2013-03-13 17:22:00,40.2,24.6,29.68,North,4,5.5,6.8,53,0.00,,---,0.00,VWS V14.01,2013-03-13 16:22:00,
2013-03-13 17:27:00,40.1,23.9,29.68,NNW,335,9.1,10.0,52,0.00,,---,0.00,VWS V14.01,2013-03-13 16:27:00,
2013-03-13 17:32:00,40.0,23.8,29.68,NNW,340,4.6,10.4,52,0.00,,---,0.00,VWS V14.01,2013-03-13 16:32:00,
2013-03-13 17:37:00,39.8,23.5,29.68,NNW,345,5.0,7.3,52,0.00,,---,0.00,VWS V14.01,2013-03-13 16:37:00,
2013-03-13 17:42:00,39.9,23.7,29.69,North,350,2.1,2.4,52,0.00,,---,0.00,VWS V14.01,2013-03-13 16:42:00,
2013-03-13 17:47:00,39.8,23.7,29.69,North,10,8.5,10.0,52,0.00,,---,0.00,VWS V14.01,2013-03-13 16:47:00,
2013-03-13 17:52:00,39.8,23.7,29.69,North,6,2.9,5.5,52,0.00,,---,0.00,VWS V14.01,2013-03-13 16:52:00,
2013-03-13 17:57:00,39.8,24.3,29.69,NNE,15,5.9,5.9,54,0.00,,---,0.00,VWS V14.01,2013-03-13 16:57:00,
2013-03-13 18:02:00,39.6,24.6,29.69,North,359,8.5,10.7,54,0.00,,---,0.00,VWS V14.01,2013-03-13 17:02:00,
2013-03-13 18:07:00,39.4,24.9,29.70,NNW,335,3.7,9.1,56,0.00,,---,0.00,VWS V14.01,2013-03-13 17:07:00,
2013-03-13 18:12:00,39.4,25.4,29.70,North,4,1.0,4.2,57,0.00,,---,0.00,VWS V14.01,2013-03-13 17:12:00,
2013-03-13 18:17:00,39.4,25.8,29.70,NNE,31,4.9,10.0,58,0.00,,---,0.00,VWS V14.01,2013-03-13 17:17:00,
2013-03-13 18:22:00,39.4,26.3,29.70,North,6,3.4,7.3,59,0.00,,---,0.00,VWS V14.01,2013-03-13 17:22:00,
2013-03-13 18:27:00,38.9,25.9,29.71,NNW,338,5.8,5.8,59,0.00,,---,0.00,VWS V14.01,2013-03-13 17:27:00,
2013-03-13 18:32:00,38.8,26.1,29.71,NNE,20,3.5,4.9,60,0.00,,---,0.00,VWS V14.01,2013-03-13 17:32:00,
2013-03-13 18:37:00,38.6,26.4,29.71,NNW,338,3.4,8.9,61,0.00,,---,0.00,VWS V14.01,2013-03-13 17:37:00,
2013-03-13 18:42:00,38.3,26.4,29.71,North,1,7.2,8.0,62,0.00,,---,0.00,VWS V14.01,2013-03-13 17:42:00,
2013-03-13 18:47:00,38.5,27.0,29.71,NNE,20,1.9,6.8,63,0.00,,---,0.00,VWS V14.01,2013-03-13 17:47:00,
2013-03-13 18:52:00,38.1,26.9,29.71,North,356,3.7,5.4,64,0.00,,---,0.00,VWS V14.01,2013-03-13 17:52:00,
2013-03-13 18:57:00,38.1,27.1,29.71,NW,326,5.3,7.4,64,0.00,,---,0.00,VWS V14.01,2013-03-13 17:57:00,
2013-03-13 19:02:00,38.1,27.2,29.72,NW,314,1.1,3.1,64,0.00,,---,0.00,VWS V14.01,2013-03-13 18:02:00,
2013-03-13 19:07:00,37.8,27.0,29.72,NNW,347,5.0,6.8,65,0.00,,---,0.00,VWS V14.01,2013-03-13 18:07:00,
2013-03-13 19:12:00,37.9,27.1,29.72,NW,322,2.8,5.1,65,0.00,,---,0.00,VWS V14.01,2013-03-13 18:12:00,
2013-03-13 19:17:00,37.7,27.0,29.72,NNW,335,2.4,6.2,65,0.00,,---,0.00,VWS V14.01,2013-03-13 18:17:00,
2013-03-13 19:22:00,37.8,27.1,29.72,North,353,2.5,6.2,65,0.00,,---,0.00,VWS V14.01,2013-03-13 18:22:00,
2013-03-13 19:27:00,37.6,27.1,29.72,NNW,345,4.8,10.5,66,0.00,,---,0.00,VWS V14.01,2013-03-13 18:27:00,
2013-03-13 19:32:00,37.6,27.2,29.72,NW,325,3.7,6.3,66,0.00,,---,0.00,VWS V14.01,2013-03-13 18:32:00,
2013-03-13 19:37:00,37.6,27.4,29.73,NNW,332,3.9,8.1,66,0.00,,---,0.00,VWS V14.01,2013-03-13 18:37:00,
2013-03-13 19:42:00,37.5,27.4,29.73,North,356,8.5,8.8,66,0.00,,---,0.00,VWS V14.01,2013-03-13 18:42:00,
2013-03-13 19:47:00,37.6,27.7,29.73,North,352,6.4,8.4,67,0.00,,---,0.00,VWS V14.01,2013-03-13 18:47:00,
2013-03-13 19:52:00,37.5,27.8,29.73,NW,319,6.5,7.2,68,0.00,,---,0.00,VWS V14.01,2013-03-13 18:52:00,
2013-03-13 19:57:00,37.5,28.0,29.73,NNW,332,2.3,3.7,68,0.00,,---,0.00,VWS V14.01,2013-03-13 18:57:00,
2013-03-13 20:02:00,37.3,27.8,29.73,North,11,4.4,6.8,68,0.00,,---,0.00,VWS V14.01,2013-03-13 19:02:00,
2013-03-13 20:07:00,37.3,27.8,29.73,North,352,1.1,1.9,68,0.00,,---,0.00,VWS V14.01,2013-03-13 19:07:00,
2013-03-13 20:13:00,37.3,27.6,29.74,NNW,328,2.7,3.8,68,0.00,,---,0.00,VWS V14.01,2013-03-13 19:13:00,
2013-03-13 20:18:00,37.2,27.4,29.74,NW,325,1.9,4.5,67,0.00,,---,0.00,VWS V14.01,2013-03-13 19:18:00,
2013-03-13 20:23:00,37.4,27.5,29.74,NNW,336,2.3,7.1,67,0.00,,---,0.00,VWS V14.01,2013-03-13 19:23:00,
2013-03-13 20:27:00,37.3,27.3,29.74,NNW,343,4.0,4.0,67,0.00,,---,0.00,VWS V14.01,2013-03-13 19:27:00,
2013-03-13 20:32:00,37.3,27.2,29.74,NNE,14,1.5,2.2,67,0.00,,---,0.00,VWS V14.01,2013-03-13 19:32:00,
2013-03-13 20:37:00,37.1,27.1,29.74,NE,34,1.4,6.9,67,0.00,,---,0.00,VWS V14.01,2013-03-13 19:37:00,
2013-03-13 20:42:00,37.1,27.1,29.74,North,350,0.0,0.0,67,0.00,,---,0.00,VWS V14.01,2013-03-13 19:42:00,
2013-03-13 20:47:00,36.9,26.8,29.74,NNW,332,4.9,5.3,66,0.00,,---,0.00,VWS V14.01,2013-03-13 19:47:00,
2013-03-13 20:52:00,36.6,26.4,29.74,NW,318,2.8,4.2,66,0.00,,---,0.00,VWS V14.01,2013-03-13 19:52:00,
2013-03-13 20:57:00,36.5,26.2,29.74,NNE,13,5.6,6.7,66,0.00,,---,0.00,VWS V14.01,2013-03-13 19:57:00,
2013-03-13 21:02:00,36.4,26.0,29.74,NNW,346,0.8,5.0,66,0.00,,---,0.00,VWS V14.01,2013-03-13 20:02:00,
2013-03-13 21:07:00,36.5,26.1,29.74,NNW,330,4.5,4.5,66,0.00,,---,0.00,VWS V14.01,2013-03-13 20:07:00,
2013-03-13 21:13:00,36.4,26.0,29.75,NNE,13,0.0,0.0,66,0.00,,---,0.00,VWS V14.01,2013-03-13 20:13:00,
2013-03-13 21:18:00,36.3,25.9,29.75,NNW,342,0.0,2.0,66,0.00,,---,0.00,VWS V14.01,2013-03-13 20:18:00,
2013-03-13 21:23:00,36.1,25.7,29.75,NW,318,0.0,0.8,66,0.00,,---,0.00,VWS V14.01,2013-03-13 20:23:00,
2013-03-13 21:28:00,36.1,25.7,29.75,NNW,332,0.0,0.0,66,0.00,,---,0.00,VWS V14.01,2013-03-13 20:28:00,
2013-03-13 21:33:00,36.0,25.6,29.75,NNW,332,0.0,0.0,66,0.00,,---,0.00,VWS V14.01,2013-03-13 20:33:00,
2013-03-13 21:38:00,35.7,25.4,29.75,NNW,332,0.0,0.0,66,0.00,,---,0.00,VWS V14.01,2013-03-13 20:38:00,
2013-03-13 21:43:00,35.9,25.6,29.75,NNW,332,0.0,0.0,66,0.00,,---,0.00,VWS V14.01,2013-03-13 20:43:00,
2013-03-13 21:48:00,35.8,25.6,29.75,NNW,332,0.0,0.0,66,0.00,,---,0.00,VWS V14.01,2013-03-13 20:48:00,
2013-03-13 21:53:00,35.6,25.5,29.75,NNW,332,0.0,0.0,66,0.00,,---,0.00,VWS V14.01,2013-03-13 20:53:00,
2013-03-13 21:58:00,35.6,25.6,29.75,NNW,332,0.0,0.0,67,0.00,,---,0.00,VWS V14.01,2013-03-13 20:58:00,
2013-03-13 22:03:00,35.4,25.5,29.75,NNW,332,0.0,0.0,67,0.00,,---,0.00,VWS V14.01,2013-03-13 21:03:00,
2013-03-13 22:08:00,35.3,25.5,29.75,NNW,332,0.0,0.0,67,0.00,,---,0.00,VWS V14.01,2013-03-13 21:08:00,
2013-03-13 22:13:00,35.1,25.3,29.75,NNW,332,0.0,0.0,67,0.00,,---,0.00,VWS V14.01,2013-03-13 21:13:00,
2013-03-13 22:18:00,35.0,25.4,29.75,NNW,332,0.0,0.0,68,0.00,,---,0.00,VWS V14.01,2013-03-13 21:18:00,
2013-03-13 22:23:00,35.3,26.2,29.75,NNW,343,2.0,6.0,69,0.00,,---,0.00,VWS V14.01,2013-03-13 21:23:00,
2013-03-13 22:28:00,35.5,26.4,29.76,NW,318,3.7,5.3,69,0.00,,---,0.00,VWS V14.01,2013-03-13 21:28:00,
2013-03-13 22:33:00,35.7,26.4,29.76,North,349,4.7,4.7,69,0.00,,---,0.00,VWS V14.01,2013-03-13 21:33:00,
2013-03-13 22:38:00,35.9,26.5,29.76,NNW,339,0.0,0.0,68,0.00,,---,0.00,VWS V14.01,2013-03-13 21:38:00,
2013-03-13 22:43:00,35.7,26.0,29.76,NNW,332,6.0,6.0,68,0.00,,---,0.00,VWS V14.01,2013-03-13 21:43:00,
2013-03-13 22:48:00,35.9,26.0,29.76,NNW,328,6.1,7.6,67,0.00,,---,0.00,VWS V14.01,2013-03-13 21:48:00,
2013-03-13 22:53:00,35.7,25.6,29.76,NNW,328,3.5,5.0,66,0.00,,---,0.00,VWS V14.01,2013-03-13 21:53:00,
2013-03-13 22:58:00,35.5,25.4,29.76,NW,307,0.0,0.0,66,0.00,,---,0.00,VWS V14.01,2013-03-13 21:58:00,
2013-03-13 23:03:00,35.4,25.4,29.76,NW,307,0.0,0.0,66,0.00,,---,0.00,VWS V14.01,2013-03-13 22:03:00,
2013-03-13 23:07:00,35.3,25.3,29.76,NW,305,1.4,2.5,66,0.00,,---,0.00,VWS V14.01,2013-03-13 22:07:00,
2013-03-13 23:12:00,35.1,25.2,29.76,WNW,287,0.0,0.0,67,0.00,,---,0.00,VWS V14.01,2013-03-13 22:12:00,
2013-03-13 23:18:00,34.9,25.1,29.76,WNW,287,0.0,0.0,67,0.00,,---,0.00,VWS V14.01,2013-03-13 22:18:00,
2013-03-13 23:23:00,34.8,25.0,29.76,WNW,287,0.0,0.0,67,0.00,,---,0.00,VWS V14.01,2013-03-13 22:23:00,
2013-03-13 23:28:00,34.6,24.9,29.76,WNW,287,0.0,0.0,67,0.00,,---,0.00,VWS V14.01,2013-03-13 22:28:00,
2013-03-13 23:33:00,34.5,24.8,29.76,WNW,287,0.0,0.0,67,0.00,,---,0.00,VWS V14.01,2013-03-13 22:33:00,
2013-03-13 23:38:00,34.4,24.9,29.76,WNW,284,0.0,0.0,68,0.00,,---,0.00,VWS V14.01,2013-03-13 22:38:00,
2013-03-13 23:43:00,34.6,25.2,29.76,WNW,284,0.0,0.0,68,0.00,,---,0.00,VWS V14.01,2013-03-13 22:43:00,
2013-03-13 23:48:00,34.6,25.1,29.76,WNW,284,0.0,0.0,68,0.00,,---,0.00,VWS V14.01,2013-03-13 22:48:00,
2013-03-13 23:53:00,34.4,25.0,29.76,WNW,290,0.0,0.0,68,0.00,,---,0.00,VWS V14.01,2013-03-13 22:53:00,
2013-03-13 23:58:00,34.3,24.9,29.76,WNW,290,0.0,0.0,68,0.00,,---,0.00,VWS V14.01,2013-03-13 22:58:00,